EJU82DY EDDB-EGKK

Flight info

Callsign EJU82DY
Flight time 1h 35m
Altitude 36000
Route SUKIP3Q/06R SUKIP Y206 BUREL P203 HLZ L980 OSNAD DCT GALSO Q63 ARREK Y4 TEBRA
Aircraft A320/M-SDE3FGHIRWY/LB1

Departure

Time 2026-05-05 17:00
Airport Berlin Brandenburg Airport (EDDB)

Arrival

Time 2026-05-05 18:35
Airport London Gatwick Airport (EGKK)
Time Latitude Longitude Altitude Speed Heading
2026-05-05 16:13 52.36211 13.50704 155 ft 0 kts 69°
2026-05-05 16:43 52.36204 13.50676 154 ft 4 kts 69°
2026-05-05 16:43 52.36195 13.50638 154 ft 3 kts 69°
2026-05-05 16:44 52.36187 13.50607 154 ft 3 kts 70°
2026-05-05 16:44 52.36184 13.50573 154 ft 3 kts 124°
2026-05-05 16:44 52.36201 13.50554 154 ft 4 kts 159°
2026-05-05 16:44 52.36212 13.50547 154 ft 0 kts 159°
2026-05-05 16:49 52.36208 13.50550 154 ft 2 kts 159°
2026-05-05 16:49 52.36158 13.50581 154 ft 13 kts 159°
2026-05-05 16:50 52.36081 13.50629 154 ft 9 kts 159°
2026-05-05 16:50 52.36040 13.50655 154 ft 4 kts 159°
2026-05-05 16:50 52.36023 13.50666 154 ft 5 kts 159°
2026-05-05 16:50 52.35985 13.50690 154 ft 4 kts 159°
2026-05-05 16:51 52.35944 13.50715 154 ft 10 kts 159°
2026-05-05 16:51 52.35858 13.50768 154 ft 12 kts 158°
2026-05-05 16:51 52.35807 13.50769 154 ft 5 kts 222°
2026-05-05 16:51 52.35797 13.50725 154 ft 6 kts 250°
2026-05-05 16:52 52.35767 13.50595 154 ft 18 kts 249°
2026-05-05 16:52 52.35714 13.50380 154 ft 18 kts 247°
2026-05-05 16:52 52.35676 13.50212 154 ft 13 kts 249°
2026-05-05 16:52 52.35643 13.50075 154 ft 16 kts 250°
2026-05-05 16:53 52.35597 13.49877 154 ft 22 kts 245°
2026-05-05 16:53 52.35545 13.49668 154 ft 17 kts 248°
2026-05-05 16:53 52.35502 13.49481 154 ft 22 kts 249°
2026-05-05 16:53 52.35439 13.49213 154 ft 25 kts 248°
2026-05-05 16:54 52.35385 13.48996 154 ft 14 kts 249°
2026-05-05 16:54 52.35355 13.48868 154 ft 11 kts 249°
2026-05-05 16:54 52.35323 13.48731 154 ft 15 kts 249°
2026-05-05 16:54 52.35284 13.48564 154 ft 13 kts 249°
2026-05-05 16:55 52.35243 13.48470 154 ft 8 kts 194°
2026-05-05 16:55 52.35196 13.48493 154 ft 8 kts 159°
2026-05-05 16:55 52.35128 13.48540 154 ft 9 kts 150°
2026-05-05 16:55 52.35102 13.48612 154 ft 6 kts 102°
2026-05-05 16:56 52.35097 13.48659 154 ft 0 kts 99°
2026-05-05 16:57 52.35097 13.48660 154 ft 1 kts 99°
2026-05-05 16:57 52.35090 13.48733 154 ft 13 kts 99°
2026-05-05 16:58 52.35068 13.48918 154 ft 18 kts 112°
2026-05-05 16:58 52.35059 13.49013 154 ft 0 kts 69°
2026-05-05 16:59 52.35082 13.49111 154 ft 39 kts 69°
2026-05-05 16:59 52.35269 13.49902 155 ft 106 kts 68°
2026-05-05 16:59 52.35607 13.51312 228 ft 149 kts 68°
2026-05-05 17:00 52.35890 13.52751 832 ft 143 kts 90°
2026-05-05 17:00 52.35472 13.54234 1335 ft 145 kts 131°
2026-05-05 17:00 52.34689 13.55385 1620 ft 165 kts 143°
2026-05-05 17:00 52.33547 13.56050 1652 ft 200 kts 179°
2026-05-05 17:01 52.32154 13.55394 1972 ft 221 kts 213°
2026-05-05 17:01 52.30900 13.53898 2284 ft 243 kts 218°
2026-05-05 17:01 52.29513 13.52099 2746 ft 264 kts 219°
2026-05-05 17:01 52.28193 13.50354 3554 ft 266 kts 219°
2026-05-05 17:02 52.26931 13.48174 4457 ft 267 kts 239°
2026-05-05 17:02 52.26315 13.45325 5356 ft 268 kts 264°
2026-05-05 17:02 52.26289 13.42294 6325 ft 267 kts 270°
2026-05-05 17:02 52.26301 13.39244 7169 ft 270 kts 270°
2026-05-05 17:03 52.26301 13.36168 7997 ft 273 kts 269°
2026-05-05 17:03 52.26281 13.33053 8826 ft 276 kts 269°
2026-05-05 17:03 52.26249 13.29942 9642 ft 280 kts 268°
2026-05-05 17:03 52.26212 13.26721 10257 ft 291 kts 268°
2026-05-05 17:04 52.26169 13.23298 10471 ft 314 kts 268°
2026-05-05 17:04 52.26125 13.19667 10909 ft 326 kts 268°
2026-05-05 17:04 52.26083 13.15933 11592 ft 331 kts 268°
2026-05-05 17:04 52.26047 13.12400 12282 ft 334 kts 268°
2026-05-05 17:05 52.26008 13.08583 13008 ft 337 kts 268°
2026-05-05 17:05 52.25970 13.04993 13667 ft 340 kts 268°
2026-05-05 17:05 52.25925 13.01129 14294 ft 342 kts 267°
2026-05-05 17:05 52.25879 12.97222 14925 ft 345 kts 268°
2026-05-05 17:06 52.25834 12.93344 15559 ft 348 kts 268°
2026-05-05 17:06 52.25786 12.89365 16177 ft 351 kts 267°
2026-05-05 17:06 52.25736 12.85382 16792 ft 354 kts 267°
2026-05-05 17:06 52.25686 12.81358 17415 ft 356 kts 267°
2026-05-05 17:07 52.25634 12.77304 18039 ft 359 kts 267°
2026-05-05 17:07 52.25576 12.73215 18579 ft 362 kts 267°
2026-05-05 17:07 52.25537 12.70503 18942 ft 363 kts 267°
2026-05-05 17:07 52.25464 12.65594 19566 ft 366 kts 267°
2026-05-05 17:08 52.25401 12.61424 20107 ft 369 kts 266°
2026-05-05 17:08 52.25337 12.57216 20656 ft 372 kts 266°
2026-05-05 17:08 52.25272 12.53044 21168 ft 374 kts 266°
2026-05-05 17:08 52.25206 12.48776 21701 ft 377 kts 266°
2026-05-05 17:09 52.25140 12.44556 22222 ft 380 kts 266°
2026-05-05 17:09 52.25070 12.40215 22736 ft 383 kts 266°
2026-05-05 17:09 52.25002 12.35869 23199 ft 386 kts 266°
2026-05-05 17:09 52.24929 12.31488 23638 ft 388 kts 266°
2026-05-05 17:10 52.24851 12.27057 24064 ft 390 kts 266°
2026-05-05 17:10 52.24770 12.22628 24495 ft 391 kts 265°
2026-05-05 17:10 52.24686 12.18184 24920 ft 392 kts 265°
2026-05-05 17:10 52.24600 12.13727 25327 ft 392 kts 265°
2026-05-05 17:11 52.24518 12.09345 25702 ft 393 kts 265°
2026-05-05 17:11 52.24433 12.04809 26081 ft 395 kts 265°
2026-05-05 17:11 52.24350 12.00357 26470 ft 396 kts 265°
2026-05-05 17:11 52.24263 11.96064 26852 ft 399 kts 265°
2026-05-05 17:12 52.24171 11.91536 27281 ft 399 kts 265°
2026-05-05 17:12 52.24073 11.87011 27627 ft 401 kts 265°
2026-05-05 17:12 52.23971 11.82467 27974 ft 402 kts 265°
2026-05-05 17:12 52.23870 11.77881 28330 ft 404 kts 265°
2026-05-05 17:13 52.23771 11.73386 28659 ft 405 kts 265°
2026-05-05 17:13 52.23667 11.68773 28999 ft 406 kts 265°
2026-05-05 17:13 52.23561 11.64162 29316 ft 408 kts 265°
2026-05-05 17:13 52.23458 11.59669 29623 ft 409 kts 265°
2026-05-05 17:14 52.23355 11.55223 29911 ft 410 kts 265°
2026-05-05 17:14 52.23247 11.50506 30168 ft 411 kts 265°
2026-05-05 17:14 52.23138 11.45899 30432 ft 412 kts 264°
2026-05-05 17:14 52.23025 11.41367 30676 ft 413 kts 264°
2026-05-05 17:15 52.22907 11.36733 30885 ft 415 kts 264°
2026-05-05 17:15 52.22785 11.32050 31144 ft 415 kts 264°
2026-05-05 17:15 52.22664 11.27473 31482 ft 413 kts 264°
2026-05-05 17:15 52.22542 11.22884 31720 ft 413 kts 264°
2026-05-05 17:16 52.22416 11.18205 32010 ft 414 kts 264°
2026-05-05 17:16 52.22289 11.13509 32304 ft 413 kts 264°
2026-05-05 17:16 52.22161 11.08859 32620 ft 412 kts 264°
2026-05-05 17:16 52.22037 11.04351 32921 ft 410 kts 264°
2026-05-05 17:17 52.21908 10.99744 33224 ft 409 kts 263°
2026-05-05 17:17 52.21779 10.95190 33528 ft 408 kts 263°
2026-05-05 17:17 52.21639 10.90512 33859 ft 407 kts 263°
2026-05-05 17:17 52.21498 10.85951 34119 ft 406 kts 263°
2026-05-05 17:18 52.21358 10.81382 34346 ft 406 kts 263°
2026-05-05 17:18 52.21220 10.76772 34566 ft 406 kts 263°
2026-05-05 17:18 52.21083 10.72175 34802 ft 406 kts 263°
2026-05-05 17:18 52.20944 10.67571 35020 ft 406 kts 263°
2026-05-05 17:19 52.20802 10.62979 35223 ft 406 kts 263°
2026-05-05 17:19 52.20654 10.58365 35416 ft 407 kts 263°
2026-05-05 17:19 52.20503 10.53764 35603 ft 407 kts 263°
2026-05-05 17:19 52.20354 10.49223 35793 ft 407 kts 263°
2026-05-05 17:20 52.20046 10.40037 35866 ft 405 kts 263°
2026-05-05 17:20 52.19735 10.30868 35865 ft 406 kts 263°
2026-05-05 17:21 52.19422 10.21687 35867 ft 406 kts 263°
2026-05-05 17:22 52.18938 10.08139 35869 ft 406 kts 263°
2026-05-05 17:22 52.18597 9.98950 35872 ft 406 kts 263°
2026-05-05 17:23 52.18258 9.90009 35873 ft 406 kts 263°
2026-05-05 17:23 52.17909 9.80925 35881 ft 406 kts 263°
2026-05-05 17:24 52.17552 9.71810 35881 ft 406 kts 262°
2026-05-05 17:24 52.17186 9.62616 35859 ft 407 kts 262°
2026-05-05 17:25 52.16827 9.53583 35847 ft 406 kts 262°
2026-05-05 17:25 52.16446 9.44392 35853 ft 407 kts 262°
2026-05-05 17:26 52.16073 9.35674 35856 ft 407 kts 262°
2026-05-05 17:26 52.15679 9.26495 35842 ft 407 kts 262°
2026-05-05 17:27 52.15280 9.17259 35834 ft 408 kts 262°
2026-05-05 17:27 52.14869 9.08101 35833 ft 409 kts 262°
2026-05-05 17:28 52.14453 8.98854 35836 ft 410 kts 262°
2026-05-05 17:28 52.14031 8.89614 35841 ft 411 kts 262°
2026-05-05 17:29 52.13603 8.80399 35845 ft 411 kts 262°
2026-05-05 17:29 52.13166 8.71215 35845 ft 412 kts 261°
2026-05-05 17:30 52.12720 8.62057 35838 ft 412 kts 261°
2026-05-05 17:30 52.12269 8.52844 35853 ft 412 kts 261°
2026-05-05 17:31 52.11808 8.43707 35856 ft 412 kts 261°
2026-05-05 17:31 52.11337 8.34588 35872 ft 412 kts 261°
2026-05-05 17:32 52.10871 8.25595 35877 ft 413 kts 261°
2026-05-05 17:32 52.10390 8.16268 35858 ft 413 kts 261°
2026-05-05 17:33 52.09900 8.06975 35858 ft 413 kts 261°
2026-05-05 17:33 52.09405 7.97818 35857 ft 413 kts 261°
2026-05-05 17:34 52.08895 7.88533 35860 ft 413 kts 261°
2026-05-05 17:34 52.08377 7.79219 35865 ft 414 kts 261°
2026-05-05 17:35 52.07857 7.69904 35858 ft 414 kts 261°
2026-05-05 17:35 52.07335 7.60748 35857 ft 414 kts 261°
2026-05-05 17:36 52.06890 7.53029 35859 ft 414 kts 261°
2026-05-05 17:36 52.06262 7.42324 35859 ft 414 kts 261°
2026-05-05 17:37 52.05723 7.33162 35863 ft 415 kts 261°
2026-05-05 17:37 52.05258 7.25388 35852 ft 416 kts 260°
2026-05-05 17:38 52.04687 7.16076 35847 ft 417 kts 260°
2026-05-05 17:38 52.04097 7.06698 35852 ft 418 kts 260°
2026-05-05 17:39 52.03511 6.97354 35855 ft 419 kts 260°
2026-05-05 17:39 52.02917 6.87958 35858 ft 419 kts 260°
2026-05-05 17:40 52.02313 6.78520 35873 ft 420 kts 260°
2026-05-05 17:40 52.01708 6.69158 35869 ft 420 kts 260°
2026-05-05 17:41 52.01090 6.59751 35870 ft 421 kts 260°
2026-05-05 17:41 52.00461 6.50388 35872 ft 421 kts 260°
2026-05-05 17:42 51.99822 6.40937 35878 ft 421 kts 260°
2026-05-05 17:42 51.99180 6.31554 35886 ft 421 kts 260°
2026-05-05 17:43 51.98542 6.22358 35885 ft 422 kts 260°
2026-05-05 17:43 51.97888 6.12962 35884 ft 422 kts 260°
2026-05-05 17:44 51.97229 6.03539 35882 ft 422 kts 259°
2026-05-05 17:44 51.96554 5.94074 35885 ft 423 kts 259°
2026-05-05 17:45 51.95887 5.84891 35901 ft 423 kts 259°
2026-05-05 17:45 51.95195 5.75457 35885 ft 423 kts 259°
2026-05-05 17:46 51.94505 5.66051 35888 ft 424 kts 259°
2026-05-05 17:46 51.93820 5.56931 35887 ft 424 kts 259°
2026-05-05 17:47 51.93096 5.47432 35888 ft 424 kts 259°
2026-05-05 17:47 51.92417 5.38531 35885 ft 424 kts 259°
2026-05-05 17:48 51.91703 5.29218 35875 ft 425 kts 259°
2026-05-05 17:48 51.90964 5.19701 35868 ft 427 kts 259°
2026-05-05 17:49 51.90271 5.10890 35871 ft 427 kts 259°
2026-05-05 17:49 51.89499 5.01234 35876 ft 428 kts 259°
2026-05-05 17:50 51.88776 4.92213 35875 ft 428 kts 259°
2026-05-05 17:50 51.88035 4.83080 35893 ft 429 kts 259°
2026-05-05 17:51 51.87252 4.73520 35886 ft 430 kts 259°
2026-05-05 17:51 51.86525 4.64803 35886 ft 430 kts 259°
2026-05-05 17:52 51.85743 4.55528 35893 ft 431 kts 259°
2026-05-05 17:52 51.84999 4.46670 35895 ft 431 kts 259°
2026-05-05 17:53 51.84255 4.37832 35618 ft 431 kts 259°
2026-05-05 17:53 51.83844 4.33038 35367 ft 431 kts 259°
2026-05-05 17:53 51.83429 4.28234 35119 ft 431 kts 259°
2026-05-05 17:53 51.83012 4.23433 34870 ft 431 kts 258°
2026-05-05 17:54 51.82728 4.20523 34719 ft 431 kts 257°
2026-05-05 17:54 51.82248 4.15742 34475 ft 432 kts 258°
2026-05-05 17:54 51.81838 4.11137 34228 ft 432 kts 258°
2026-05-05 17:54 51.81440 4.06328 33968 ft 431 kts 259°
2026-05-05 17:55 51.81052 4.01561 33677 ft 429 kts 259°
2026-05-05 17:55 51.80763 3.98070 33450 ft 428 kts 258°
2026-05-05 17:55 51.80365 3.93382 33148 ft 425 kts 258°
2026-05-05 17:55 51.79952 3.88667 32847 ft 423 kts 258°
2026-05-05 17:56 51.79527 3.83973 32564 ft 421 kts 258°
2026-05-05 17:56 51.79099 3.79306 32275 ft 419 kts 258°
2026-05-05 17:56 51.78760 3.75634 32051 ft 417 kts 258°
2026-05-05 17:56 51.78333 3.70997 31750 ft 415 kts 258°
2026-05-05 17:57 51.77910 3.66393 31476 ft 413 kts 258°
2026-05-05 17:57 51.77491 3.61820 31197 ft 412 kts 258°
2026-05-05 17:57 51.77077 3.57311 30921 ft 410 kts 258°
2026-05-05 17:57 51.76663 3.52830 30651 ft 408 kts 258°
2026-05-05 17:58 51.76243 3.48324 30382 ft 406 kts 258°
2026-05-05 17:58 51.75825 3.43921 30112 ft 405 kts 258°
2026-05-05 17:58 51.75392 3.39334 29825 ft 404 kts 258°
2026-05-05 17:58 51.74969 3.34865 29511 ft 402 kts 257°
2026-05-05 17:59 51.74544 3.30405 29195 ft 400 kts 258°
2026-05-05 17:59 51.74120 3.25961 28939 ft 402 kts 258°
2026-05-05 17:59 51.73701 3.21564 28907 ft 400 kts 258°
2026-05-05 18:00 51.72860 3.12650 28528 ft 400 kts 258°
2026-05-05 18:00 51.72482 3.08331 28193 ft 393 kts 259°
2026-05-05 18:00 51.72116 3.03964 27855 ft 392 kts 258°
2026-05-05 18:00 51.71755 2.99619 27512 ft 390 kts 260°
2026-05-05 18:01 51.71392 2.95305 27173 ft 387 kts 260°
2026-05-05 18:01 51.71021 2.91014 26828 ft 386 kts 258°
2026-05-05 18:01 51.70647 2.86741 26501 ft 385 kts 259°
2026-05-05 18:01 51.70271 2.82478 26161 ft 382 kts 259°
2026-05-05 18:02 51.69895 2.78238 25826 ft 380 kts 259°
2026-05-05 18:02 51.69520 2.74038 25495 ft 378 kts 260°
2026-05-05 18:02 51.69145 2.69862 25167 ft 376 kts 259°
2026-05-05 18:02 51.68775 2.65746 24845 ft 376 kts 259°
2026-05-05 18:03 51.68402 2.61593 24513 ft 373 kts 259°
2026-05-05 18:03 51.68032 2.57462 24187 ft 370 kts 259°
2026-05-05 18:03 51.67665 2.53362 23862 ft 370 kts 259°
2026-05-05 18:03 51.67297 2.49284 23542 ft 368 kts 260°
2026-05-05 18:04 51.66928 2.45217 23179 ft 367 kts 259°
2026-05-05 18:04 51.66559 2.41171 22862 ft 365 kts 261°
2026-05-05 18:04 51.66189 2.37139 22542 ft 359 kts 261°
2026-05-05 18:04 51.65821 2.33167 22229 ft 358 kts 261°
2026-05-05 18:05 51.65453 2.29213 21919 ft 358 kts 261°
2026-05-05 18:05 51.65085 2.25263 21609 ft 356 kts 261°
2026-05-05 18:05 51.64721 2.21371 21299 ft 355 kts 261°
2026-05-05 18:05 51.64353 2.17461 20987 ft 353 kts 261°
2026-05-05 18:06 51.63983 2.13544 20679 ft 353 kts 261°
2026-05-05 18:06 51.63733 2.10916 20469 ft 352 kts 261°
2026-05-05 18:06 51.63256 2.05761 20066 ft 350 kts 261°
2026-05-05 18:06 51.62901 2.01888 19756 ft 349 kts 261°
2026-05-05 18:07 51.62545 1.98013 19450 ft 348 kts 261°
2026-05-05 18:07 51.62190 1.94149 19148 ft 348 kts 261°
2026-05-05 18:07 51.61831 1.90317 18857 ft 347 kts 261°
2026-05-05 18:07 51.61357 1.86506 18610 ft 347 kts 253°
2026-05-05 18:08 51.60436 1.82900 18357 ft 347 kts 241°
2026-05-05 18:08 51.59107 1.79720 18116 ft 347 kts 229°
2026-05-05 18:08 51.57507 1.76830 17854 ft 346 kts 228°
2026-05-05 18:08 51.55911 1.73946 17585 ft 345 kts 228°
2026-05-05 18:09 51.54325 1.71065 17326 ft 345 kts 228°
2026-05-05 18:09 51.52734 1.68172 17060 ft 344 kts 228°
2026-05-05 18:09 51.51154 1.65299 16792 ft 342 kts 228°
2026-05-05 18:09 51.49625 1.62387 16522 ft 340 kts 234°
2026-05-05 18:10 51.48446 1.59119 16262 ft 339 kts 246°
2026-05-05 18:10 51.47614 1.55587 16009 ft 336 kts 250°
2026-05-05 18:10 51.46815 1.52086 15637 ft 335 kts 250°
2026-05-05 18:10 51.46005 1.48575 15239 ft 334 kts 250°
2026-05-05 18:11 51.45205 1.45125 14842 ft 334 kts 250°
2026-05-05 18:11 51.44396 1.41650 14412 ft 333 kts 248°
2026-05-05 18:11 51.43291 1.38346 14007 ft 333 kts 234°
2026-05-05 18:11 51.41745 1.35549 13727 ft 342 kts 221°
2026-05-05 18:12 51.39864 1.33236 13509 ft 344 kts 216°
2026-05-05 18:12 51.37932 1.30959 13260 ft 344 kts 216°
2026-05-05 18:12 51.36014 1.28695 13014 ft 343 kts 216°
2026-05-05 18:12 51.34093 1.26426 12791 ft 342 kts 216°
2026-05-05 18:13 51.32189 1.24175 12553 ft 341 kts 216°
2026-05-05 18:13 51.30276 1.21909 12315 ft 342 kts 217°
2026-05-05 18:13 51.28364 1.19637 12054 ft 341 kts 217°
2026-05-05 18:13 51.26466 1.17402 11799 ft 338 kts 217°
2026-05-05 18:14 51.24599 1.15203 11552 ft 339 kts 217°
2026-05-05 18:14 51.22702 1.12971 11303 ft 338 kts 217°
2026-05-05 18:14 51.20816 1.10759 11053 ft 337 kts 217°
2026-05-05 18:14 51.18926 1.08546 10811 ft 334 kts 217°
2026-05-05 18:15 51.17057 1.06361 10559 ft 334 kts 217°
2026-05-05 18:15 51.15184 1.04172 10324 ft 333 kts 217°
2026-05-05 18:15 51.13313 1.01989 10076 ft 332 kts 217°
2026-05-05 18:15 51.11480 0.99851 9854 ft 329 kts 217°
2026-05-05 18:16 51.09666 0.97735 9733 ft 317 kts 218°
2026-05-05 18:16 51.07928 0.95706 9596 ft 305 kts 218°
2026-05-05 18:16 51.06316 0.93583 9458 ft 296 kts 229°
2026-05-05 18:16 51.05102 0.91003 9328 ft 291 kts 243°
2026-05-05 18:17 51.04221 0.88111 9215 ft 289 kts 246°
2026-05-05 18:17 51.03369 0.85236 9089 ft 289 kts 247°
2026-05-05 18:17 51.02513 0.82354 8968 ft 288 kts 247°
2026-05-05 18:17 51.01655 0.79479 9003 ft 288 kts 247°
2026-05-05 18:18 51.00789 0.76597 9009 ft 288 kts 247°
2026-05-05 18:18 50.99929 0.73746 9019 ft 288 kts 246°
2026-05-05 18:18 50.99308 0.70737 9019 ft 285 kts 262°
2026-05-05 18:18 50.98985 0.67674 9030 ft 284 kts 262°
2026-05-05 18:19 50.98663 0.64567 9024 ft 285 kts 262°
2026-05-05 18:19 50.98339 0.61480 9033 ft 285 kts 263°
2026-05-05 18:19 50.98010 0.58378 9049 ft 285 kts 262°
2026-05-05 18:19 50.97681 0.55265 8968 ft 287 kts 264°
2026-05-05 18:20 50.97543 0.52131 8707 ft 283 kts 271°
2026-05-05 18:20 50.97514 0.49019 8451 ft 282 kts 272°
2026-05-05 18:20 50.97485 0.45913 8190 ft 280 kts 271°
2026-05-05 18:20 50.97460 0.42829 7934 ft 279 kts 271°
2026-05-05 18:21 50.97432 0.39756 7677 ft 278 kts 271°
2026-05-05 18:21 50.97400 0.36697 7421 ft 277 kts 272°
2026-05-05 18:21 50.97475 0.33694 7173 ft 275 kts 276°
2026-05-05 18:21 50.97605 0.30641 6919 ft 273 kts 276°
2026-05-05 18:22 50.97735 0.27680 6672 ft 272 kts 276°
2026-05-05 18:22 50.97859 0.24695 6423 ft 271 kts 276°
2026-05-05 18:22 50.97976 0.21711 6173 ft 270 kts 276°
2026-05-05 18:22 50.98092 0.18732 6015 ft 270 kts 276°
2026-05-05 18:23 50.98203 0.15766 5799 ft 269 kts 276°
2026-05-05 18:23 50.98311 0.12803 5609 ft 268 kts 276°
2026-05-05 18:23 50.98421 0.09835 5469 ft 269 kts 276°
2026-05-05 18:23 50.98529 0.06886 5330 ft 269 kts 276°
2026-05-05 18:24 50.98636 0.03973 5191 ft 268 kts 276°
2026-05-05 18:24 50.98745 0.01021 5051 ft 268 kts 276°
2026-05-05 18:24 50.98854 -0.01933 4897 ft 268 kts 276°
2026-05-05 18:24 50.98977 -0.04877 4772 ft 267 kts 276°
2026-05-05 18:25 50.99104 -0.07810 4644 ft 266 kts 276°
2026-05-05 18:25 50.99188 -0.09747 4556 ft 266 kts 276°
2026-05-05 18:25 50.99362 -0.13669 4376 ft 266 kts 276°
2026-05-05 18:25 50.99493 -0.16583 4255 ft 264 kts 276°
2026-05-05 18:26 50.99619 -0.19431 4081 ft 253 kts 276°
2026-05-05 18:26 50.99741 -0.22164 3823 ft 246 kts 276°
2026-05-05 18:26 50.99861 -0.24817 3570 ft 243 kts 276°
2026-05-05 18:26 50.99984 -0.27486 3318 ft 242 kts 276°
2026-05-05 18:27 51.00108 -0.30153 3087 ft 241 kts 276°
2026-05-05 18:27 51.00234 -0.32810 3003 ft 241 kts 276°
2026-05-05 18:27 51.00365 -0.35465 3006 ft 242 kts 276°
2026-05-05 18:27 51.00497 -0.38141 3002 ft 242 kts 276°
2026-05-05 18:28 51.00751 -0.43318 3004 ft 232 kts 276°
2026-05-05 18:28 51.00968 -0.45753 2993 ft 218 kts 294°
2026-05-05 18:28 51.01832 -0.47560 3003 ft 202 kts 329°
2026-05-05 18:29 51.03063 -0.48413 3042 ft 188 kts 343°
2026-05-05 18:29 51.04303 -0.48990 3012 ft 184 kts 346°
2026-05-05 18:29 51.05525 -0.49530 3002 ft 182 kts 346°
2026-05-05 18:29 51.06748 -0.50058 2999 ft 182 kts 348°
2026-05-05 18:30 51.07979 -0.49942 2988 ft 179 kts 25°
2026-05-05 18:30 51.08928 -0.48683 3006 ft 180 kts 47°
2026-05-05 18:30 51.09729 -0.47144 3005 ft 180 kts 50°
2026-05-05 18:30 51.10506 -0.45564 3001 ft 180 kts 51°
2026-05-05 18:31 51.11243 -0.43977 3007 ft 182 kts 59°
2026-05-05 18:31 51.11609 -0.42098 2900 ft 174 kts 75°
2026-05-05 18:31 51.11861 -0.40258 2707 ft 167 kts 76°
2026-05-05 18:31 51.12108 -0.38479 2491 ft 163 kts 76°
2026-05-05 18:32 51.12352 -0.36734 2281 ft 161 kts 76°
2026-05-05 18:32 51.12593 -0.35008 2065 ft 160 kts 76°
2026-05-05 18:32 51.12833 -0.33289 1851 ft 159 kts 76°
2026-05-05 18:32 51.13072 -0.31582 1651 ft 157 kts 77°
2026-05-05 18:33 51.13307 -0.29891 1422 ft 157 kts 77°
2026-05-05 18:33 51.13537 -0.28237 1201 ft 147 kts 77°
2026-05-05 18:33 51.13750 -0.26668 975 ft 143 kts 78°
2026-05-05 18:33 51.13956 -0.25139 810 ft 141 kts 77°
2026-05-05 18:34 51.14166 -0.23605 626 ft 141 kts 78°
2026-05-05 18:34 51.14392 -0.22085 385 ft 140 kts 76°
2026-05-05 18:34 51.14598 -0.20605 237 ft 137 kts 78°
2026-05-05 18:34 51.14786 -0.19271 215 ft 106 kts 78°
2026-05-05 18:35 51.14900 -0.18394 213 ft 56 kts 77°
2026-05-05 18:35 51.14980 -0.17959 208 ft 36 kts 59°
2026-05-05 18:35 51.15127 -0.17759 209 ft 21 kts 353°
2026-05-05 18:35 51.15214 -0.17775 209 ft 7 kts 351°
2026-05-05 18:36 51.15245 -0.17763 210 ft 2 kts 32°
2026-05-05 18:36 51.15254 -0.17750 204 ft 1 kts 44°
2026-05-05 18:36 51.15256 -0.17744 204 ft 0 kts 52°
2026-05-05 18:36 51.15257 -0.17742 204 ft 0 kts 57°
2026-05-05 18:37 51.15266 -0.17700 204 ft 10 kts 75°
2026-05-05 18:37 51.15285 -0.17555 204 ft 15 kts 77°
2026-05-05 18:37 51.15312 -0.17390 209 ft 15 kts 54°
2026-05-05 18:37 51.15411 -0.17391 207 ft 16 kts 347°
2026-05-05 18:38 51.15518 -0.17427 204 ft 11 kts 345°
2026-05-05 18:38 51.15570 -0.17448 210 ft 9 kts 347°
2026-05-05 18:38 51.15664 -0.17479 212 ft 17 kts 347°
2026-05-05 18:38 51.15749 -0.17533 210 ft 11 kts 296°
2026-05-05 18:39 51.15742 -0.17645 204 ft 10 kts 258°
2026-05-05 18:39 51.15727 -0.17753 204 ft 10 kts 257°
2026-05-05 18:39 51.15713 -0.17855 209 ft 9 kts 256°
2026-05-05 18:39 51.15675 -0.17862 215 ft 5 kts 165°
2026-05-05 18:40 51.15643 -0.17850 204 ft 3 kts 167°
2026-05-05 18:40 51.15637 -0.17848 204 ft 0 kts 168°